| time (UTC) | temp F | wind direction | speed MPH | gust MPH | rain 1hr in | rain 24hr in | rain mn in | humidity % | barometer mb |
| 20260510223004 | 70 | 11 | 0.0 | 4.0 | 0.00 | 0.00 | 0.00 | 36 | 1017.0 |
| 20260510222503 | 70 | 356 | 1.0 | 4.0 | 0.00 | 0.00 | 0.00 | 36 | 1017.0 |
| 20260510222003 | 70 | 353 | 1.0 | 5.0 | 0.00 | 0.00 | 0.00 | 37 | 1017.0 |
| 20260510221503 | 70 | 349 | 1.0 | 5.0 | 0.00 | 0.00 | 0.00 | 35 | 1016.9 |
| 20260510221003 | 70 | 334 | 1.0 | 4.0 | 0.00 | 0.00 | 0.00 | 35 | 1017.0 |
| 20260510220503 | 70 | 315 | 1.0 | 3.0 | 0.00 | 0.00 | 0.00 | 36 | 1016.9 |
| 20260510220004 | 70 | 336 | 1.0 | 7.0 | 0.00 | 0.00 | 0.00 | 35 | 1016.9 |
| 20260510215504 | 70 | 352 | 1.0 | 7.0 | 0.00 | 0.00 | 0.00 | 36 | 1016.8 |
| 20260510215003 | 70 | 326 | 1.0 | 3.0 | 0.00 | 0.00 | 0.00 | 36 | 1016.8 |
| 20260510214503 | 70 | 316 | 1.0 | 3.0 | 0.00 | 0.00 | 0.00 | 35 | 1016.8 |
| 20260510214003 | 70 | 321 | 2.0 | 6.0 | 0.00 | 0.00 | 0.00 | 36 | 1016.9 |
| 20260510213503 | 70 | 350 | 2.0 | 6.0 | 0.00 | 0.00 | 0.00 | 36 | 1016.8 |
| 20260510213218 | 70 | 352 | 3.0 | 7.0 | 0.00 | 0.00 | 0.00 | 36 | 1016.8 |
| 20260510212503 | 70 | 330 | 1.0 | 7.0 | 0.00 | 0.00 | 0.00 | 35 | 1016.8 |
| 20260510212003 | 70 | 310 | 1.0 | 3.0 | 0.00 | 0.00 | 0.00 | 36 | 1016.8 |
| 20260510211503 | 70 | 309 | 1.0 | 3.0 | 0.00 | 0.00 | 0.00 | 35 | 1016.8 |
| 20260510211218 | 70 | 308 | 2.0 | 4.0 | 0.00 | 0.00 | 0.00 | 39 | 1016.8 |
| 20260510210717 | 70 | 314 | 2.0 | 4.0 | 0.00 | 0.00 | 0.00 | 35 | 1016.9 |
| 20260510210004 | 70 | 324 | 1.0 | 4.0 | 0.00 | 0.00 | 0.00 | 36 | 1016.9 |
| 20260510205503 | 70 | 320 | 1.0 | 3.0 | 0.00 | 0.00 | 0.00 | 37 | 1016.9 |
| 20260510205003 | 70 | 319 | 1.0 | 3.0 | 0.00 | 0.00 | 0.00 | 38 | 1016.8 |
| 20260510204503 | 70 | 311 | 1.0 | 3.0 | 0.00 | 0.00 | 0.00 | 38 | 1016.8 |
| 20260510204218 | 70 | 304 | 1.0 | 3.0 | 0.00 | 0.00 | 0.00 | 40 | 1016.8 |
| 20260510203504 | 70 | 305 | 1.0 | 3.0 | 0.00 | 0.00 | 0.00 | 40 | 1016.8 |
| 20260510203003 | 70 | 324 | 1.0 | 5.0 | 0.00 | 0.00 | 0.00 | 36 | 1016.9 |
| 20260510202503 | 70 | 335 | 1.0 | 5.0 | 0.00 | 0.00 | 0.00 | 39 | 1016.8 |
| 20260510202003 | 70 | 313 | 1.0 | 3.0 | 0.00 | 0.00 | 0.00 | 38 | 1016.8 |
| 20260510201503 | 70 | 326 | 1.0 | 5.0 | 0.00 | 0.00 | 0.00 | 38 | 1016.8 |
| 20260510201217 | 70 | 325 | 1.0 | 5.0 | 0.00 | 0.00 | 0.00 | 36 | 1016.9 |
| 20260510200503 | 70 | 346 | 2.0 | 8.0 | 0.00 | 0.00 | 0.00 | 39 | 1017.0 |
| 20260510200004 | 70 | 351 | 2.0 | 8.0 | 0.00 | 0.00 | 0.00 | 39 | 1016.8 |
| 20260510195503 | 70 | 319 | 0.0 | 3.0 | 0.00 | 0.00 | 0.00 | 38 | 1016.8 |
| 20260510195217 | 70 | 300 | 0.0 | 3.0 | 0.00 | 0.00 | 0.00 | 39 | 1016.7 |
| 20260510194503 | 70 | 310 | 1.0 | 3.0 | 0.00 | 0.00 | 0.00 | 38 | 1016.8 |
| 20260510194003 | 70 | 309 | 0.0 | 2.0 | 0.00 | 0.00 | 0.00 | 37 | 1016.8 |
| 20260510193503 | 70 | 11 | 0.0 | 6.0 | 0.00 | 0.00 | 0.00 | 39 | 1016.7 |
| 20260510193003 | 70 | 360 | 2.0 | 6.0 | 0.00 | 0.00 | 0.00 | 39 | 1016.5 |
| 20260510192503 | 70 | 352 | 1.0 | 6.0 | 0.00 | 0.00 | 0.00 | 41 | 1016.5 |
| 20260510192003 | 70 | 257 | 0.0 | 3.0 | 0.00 | 0.00 | 0.00 | 39 | 1016.5 |
| 20260510191504 | 70 | 304 | 1.0 | 4.0 | 0.00 | 0.00 | 0.00 | 39 | 1016.6 |
| 20260510191003 | 70 | 317 | 1.0 | 4.0 | 0.00 | 0.00 | 0.00 | 39 | 1016.7 |
| 20260510190503 | 70 | 308 | 1.0 | 2.0 | 0.00 | 0.00 | 0.00 | 37 | 1016.7 |
| 20260510190003 | 70 | 338 | 1.0 | 3.0 | 0.00 | 0.00 | 0.00 | 38 | 1016.7 |
| 20260510185503 | 69 | 350 | 1.0 | 6.0 | 0.00 | 0.00 | 0.00 | 39 | 1016.7 |
| 20260510185003 | 69 | 341 | 2.0 | 6.0 | 0.00 | 0.00 | 0.00 | 40 | 1016.7 |
| 20260510184718 | 69 | 343 | 2.0 | 8.0 | 0.00 | 0.00 | 0.00 | 37 | 1016.7 |
| 20260510184003 | 69 | 343 | 1.0 | 8.0 | 0.00 | 0.00 | 0.00 | 40 | 1016.7 |
| 20260510183503 | 69 | 313 | 1.0 | 2.0 | 0.00 | 0.00 | 0.00 | 39 | 1016.6 |
| 20260510183003 | 69 | 307 | 1.0 | 3.0 | 0.00 | 0.00 | 0.00 | 38 | 1016.6 |
| 20260510182503 | 69 | 309 | 1.0 | 3.0 | 0.00 | 0.00 | 0.00 | 38 | 1016.8 |
| 20260510182003 | 69 | 336 | 2.0 | 8.0 | 0.00 | 0.00 | 0.00 | 38 | 1016.7 |
| 20260510181503 | 70 | 341 | 2.0 | 8.0 | 0.00 | 0.00 | 0.00 | 39 | 1016.7 |
| 20260510181003 | 70 | 315 | 1.0 | 3.0 | 0.00 | 0.00 | 0.00 | 41 | 1016.8 |
| 20260510180503 | 70 | 306 | 1.0 | 3.0 | 0.00 | 0.00 | 0.00 | 40 | 1016.8 |
| 20260510180004 | 69 | 322 | 0.0 | 2.0 | 0.00 | 0.00 | 0.00 | 41 | 1016.9 |
| 20260510175503 | 69 | 312 | 1.0 | 2.0 | 0.00 | 0.00 | 0.00 | 43 | 1017.0 |
| 20260510175218 | 69 | 306 | 1.0 | 2.0 | 0.00 | 0.00 | 0.00 | 41 | 1016.9 |
| 20260510174718 | 70 | 343 | 1.0 | 6.0 | 0.00 | 0.00 | 0.00 | 42 | 1017.0 |
| 20260510174003 | 69 | 342 | 1.0 | 6.0 | 0.00 | 0.00 | 0.00 | 43 | 1017.0 |
| 20260510173503 | 69 | 309 | 1.0 | 3.0 | 0.00 | 0.00 | 0.00 | 41 | 1017.1 |
| 20260510173003 | 69 | 311 | 1.0 | 4.0 | 0.00 | 0.00 | 0.00 | 40 | 1017.1 |
| 20260510172503 | 69 | 313 | 2.0 | 4.0 | 0.00 | 0.00 | 0.00 | 40 | 1017.1 |
| 20260510172218 | 69 | 313 | 1.0 | 4.0 | 0.00 | 0.00 | 0.00 | 42 | 1017.1 |
| 20260510171503 | 68 | 306 | 1.0 | 3.0 | 0.00 | 0.00 | 0.00 | 41 | 1017.1 |
| 20260510171004 | 68 | 310 | 1.0 | 3.0 | 0.00 | 0.00 | 0.00 | 41 | 1017.1 |
| 20260510170503 | 69 | 316 | 1.0 | 3.0 | 0.00 | 0.00 | 0.00 | 44 | 1017.0 |
| 20260510170004 | 69 | 348 | 1.0 | 6.0 | 0.00 | 0.00 | 0.00 | 42 | 1017.0 |
| 20260510165503 | 69 | 11 | 2.0 | 6.0 | 0.00 | 0.00 | 0.00 | 43 | 1017.0 |
| 20260510165003 | 69 | 359 | 1.0 | 5.0 | 0.00 | 0.00 | 0.00 | 41 | 1017.0 |
| 20260510164503 | 68 | 316 | 1.0 | 3.0 | 0.00 | 0.00 | 0.00 | 41 | 1017.0 |
| 20260510164003 | 69 | 324 | 1.0 | 7.0 | 0.00 | 0.00 | 0.00 | 41 | 1017.0 |
| 20260510163503 | 68 | 324 | 1.0 | 7.0 | 0.00 | 0.00 | 0.00 | 43 | 1017.0 |
| 20260510163003 | 68 | 352 | 2.0 | 9.0 | 0.00 | 0.00 | 0.00 | 41 | 1016.9 |
| 20260510162717 | 68 | 355 | 3.0 | 9.0 | 0.00 | 0.00 | 0.00 | 42 | 1016.9 |
| 20260510162003 | 67 | 26 | 2.0 | 7.0 | 0.00 | 0.00 | 0.00 | 44 | 1016.9 |
| 20260510161503 | 67 | 29 | 2.0 | 7.0 | 0.00 | 0.00 | 0.00 | 45 | 1016.9 |
| 20260510161003 | 67 | 7 | 1.0 | 5.0 | 0.00 | 0.00 | 0.00 | 45 | 1016.8 |
| 20260510160503 | 67 | 1 | 1.0 | 6.0 | 0.00 | 0.00 | 0.00 | 46 | 1016.7 |
| 20260510160218 | 67 | 360 | 2.0 | 7.0 | 0.00 | 0.00 | 0.00 | 45 | 1016.7 |
| 20260510155503 | 67 | 356 | 2.0 | 7.0 | 0.00 | 0.00 | 0.00 | 46 | 1016.7 |
| 20260510155003 | 67 | 1 | 2.0 | 7.0 | 0.00 | 0.00 | 0.00 | 51 | 1016.4 |
| 20260510154717 | 67 | 359 | 2.0 | 7.0 | 0.00 | 0.00 | 0.00 | 49 | 1016.3 |
| 20260510154003 | 66 | 357 | 2.0 | 6.0 | 0.00 | 0.00 | 0.00 | 49 | 1016.2 |
| 20260510153503 | 66 | 1 | 2.0 | 6.0 | 0.00 | 0.00 | 0.00 | 48 | 1016.2 |
| 20260510153218 | 67 | 6 | 2.0 | 5.0 | 0.00 | 0.00 | 0.00 | 49 | 1016.1 |
| 20260510152503 | 66 | 6 | 1.0 | 4.0 | 0.00 | 0.00 | 0.00 | 50 | 1016.2 |
| 20260510152003 | 66 | 350 | 1.0 | 3.0 | 0.00 | 0.00 | 0.00 | 54 | 1016.2 |
| 20260510151503 | 65 | 11 | 2.0 | 6.0 | 0.00 | 0.00 | 0.00 | 53 | 1016.1 |
| 20260510151003 | 65 | 21 | 2.0 | 6.0 | 0.00 | 0.00 | 0.00 | 51 | 1016.1 |
| 20260510150503 | 65 | 24 | 1.0 | 4.0 | 0.00 | 0.00 | 0.00 | 53 | 1016.3 |
| 20260510150003 | 64 | 20 | 1.0 | 5.0 | 0.00 | 0.00 | 0.00 | 55 | 1016.5 |
| 20260510145503 | 64 | 24 | 2.0 | 6.0 | 0.00 | 0.00 | 0.00 | 52 | 1016.5 |
| 20260510145003 | 64 | 17 | 2.0 | 6.0 | 0.00 | 0.00 | 0.00 | 52 | 1016.4 |
| 20260510144718 | 64 | 12 | 2.0 | 6.0 | 0.00 | 0.00 | 0.00 | 54 | 1016.5 |
| 20260510144003 | 64 | 21 | 1.0 | 4.0 | 0.00 | 0.00 | 0.00 | 55 | 1016.2 |
| 20260510143503 | 64 | 29 | 2.0 | 7.0 | 0.00 | 0.00 | 0.00 | 56 | 1016.1 |
| 20260510143003 | 64 | 22 | 2.0 | 7.0 | 0.00 | 0.00 | 0.00 | 55 | 1016.2 |
| 20260510142503 | 64 | 360 | 1.0 | 5.0 | 0.00 | 0.00 | 0.00 | 56 | 1016.0 |
| 20260510142003 | 63 | 22 | 1.0 | 5.0 | 0.00 | 0.00 | 0.00 | 57 | 1016.0 |
| 20260510141503 | 62 | 57 | 2.0 | 6.0 | 0.00 | 0.00 | 0.00 | 59 | 1016.0 |
| 20260510141004 | 62 | 45 | 2.0 | 6.0 | 0.00 | 0.00 | 0.00 | 58 | 1015.9 |
| 20260510140503 | 62 | 35 | 2.0 | 6.0 | 0.00 | 0.00 | 0.00 | 57 | 1015.9 |
| 20260510140004 | 62 | 41 | 1.0 | 4.0 | 0.00 | 0.00 | 0.00 | 56 | 1015.8 |
| 20260510135503 | 62 | 21 | 1.0 | 5.0 | 0.00 | 0.00 | 0.00 | 61 | 1015.9 |
| 20260510135003 | 62 | 41 | 2.0 | 5.0 | 0.00 | 0.00 | 0.00 | 58 | 1015.9 |
| 20260510134503 | 61 | 52 | 2.0 | 8.0 | 0.00 | 0.00 | 0.00 | 60 | 1015.8 |
| 20260510134003 | 61 | 40 | 2.0 | 8.0 | 0.00 | 0.00 | 0.00 | 59 | 1015.8 |
| 20260510133718 | 61 | 42 | 2.0 | 6.0 | 0.00 | 0.00 | 0.00 | 60 | 1015.8 |
| 20260510133003 | 61 | 18 | 2.0 | 5.0 | 0.00 | 0.00 | 0.00 | 61 | 1015.6 |
| 20260510132503 | 61 | 18 | 2.0 | 5.0 | 0.00 | 0.00 | 0.00 | 61 | 1015.3 |
| 20260510132003 | 60 | 17 | 2.0 | 5.0 | 0.00 | 0.00 | 0.00 | 63 | 1015.4 |
| 20260510131503 | 60 | 5 | 2.0 | 6.0 | 0.00 | 0.00 | 0.00 | 64 | 1015.4 |
| 20260510131003 | 60 | 11 | 2.0 | 6.0 | 0.00 | 0.00 | 0.00 | 64 | 1015.5 |
| 20260510130503 | 60 | 9 | 2.0 | 6.0 | 0.00 | 0.00 | 0.00 | 66 | 1015.6 |
| 20260510130003 | 60 | 3 | 2.0 | 6.0 | 0.00 | 0.00 | 0.00 | 65 | 1015.4 |
| 20260510125503 | 60 | 6 | 2.0 | 4.0 | 0.00 | 0.00 | 0.00 | 65 | 1015.3 |
| 20260510125003 | 60 | 17 | 1.0 | 4.0 | 0.00 | 0.05 | 0.00 | 66 | 1015.2 |
| 20260510124503 | 59 | 11 | 1.0 | 5.0 | 0.00 | 0.05 | 0.00 | 66 | 1015.2 |
| 20260510124218 | 59 | 13 | 1.0 | 5.0 | 0.00 | 0.05 | 0.00 | 67 | 1015.2 |
| 20260510123503 | 59 | 10 | 2.0 | 4.0 | 0.00 | 0.05 | 0.00 | 67 | 1015.1 |
| 20260510123003 | 59 | 10 | 1.0 | 4.0 | 0.00 | 0.05 | 0.00 | 67 | 1014.9 |
| 20260510122503 | 58 | 6 | 1.0 | 5.0 | 0.00 | 0.05 | 0.00 | 69 | 1014.6 |
| 20260510122003 | 58 | 2 | 2.0 | 5.0 | 0.00 | 0.05 | 0.00 | 68 | 1014.5 |
| 20260510121503 | 58 | 2 | 2.0 | 5.0 | 0.00 | 0.05 | 0.00 | 69 | 1014.5 |
| 20260510121218 | 58 | 2 | 2.0 | 5.0 | 0.00 | 0.05 | 0.00 | 69 | 1014.4 |
| 20260510120503 | 58 | 359 | 1.0 | 4.0 | 0.00 | 0.05 | 0.00 | 69 | 1014.5 |
| 20260510120222 | 58 | 355 | 2.0 | 5.0 | 0.00 | 0.05 | 0.00 | 70 | 1014.3 |
| 20260510115504 | 58 | 356 | 2.0 | 5.0 | 0.00 | 0.05 | 0.00 | 69 | 1014.1 |
| 20260510115003 | 58 | 357 | 1.0 | 3.0 | 0.00 | 0.05 | 0.00 | 70 | 1013.9 |
| 20260510114503 | 57 | 355 | 1.0 | 3.0 | 0.00 | 0.05 | 0.00 | 70 | 1013.9 |
| 20260510114003 | 57 | 354 | 1.0 | 3.0 | 0.00 | 0.05 | 0.00 | 71 | 1013.8 |
| 20260510113503 | 57 | 358 | 1.0 | 4.0 | 0.00 | 0.05 | 0.00 | 71 | 1013.5 |
| 20260510113003 | 57 | 359 | 1.0 | 4.0 | 0.00 | 0.05 | 0.00 | 71 | 1013.1 |
| 20260510112717 | 57 | 358 | 0.0 | 4.0 | 0.00 | 0.05 | 0.00 | 71 | 1013.0 |
| 20260510112003 | 57 | 359 | 0.0 | 2.0 | 0.00 | 0.05 | 0.00 | 71 | 1012.9 |
| 20260510111503 | 56 | 8 | 0.0 | 1.0 | 0.00 | 0.05 | 0.00 | 71 | 1012.9 |
| 20260510111003 | 56 | 8 | 0.0 | 1.0 | 0.00 | 0.05 | 0.00 | 71 | 1012.7 |
| 20260510110717 | 56 | 8 | 0.0 | 1.0 | 0.00 | 0.05 | 0.00 | 71 | 1012.7 |
| 20260510110004 | 57 | 7 | 0.0 | 2.0 | 0.00 | 0.05 | 0.00 | 70 | 1012.5 |
| 20260510105503 | 57 | 2 | 0.0 | 3.0 | 0.00 | 0.05 | 0.00 | 70 | 1012.4 |
| 20260510105003 | 57 | 360 | 0.0 | 3.0 | 0.00 | 0.05 | 0.00 | 71 | 1012.3 |
| 20260510104503 | 57 | 354 | 0.0 | 3.0 | 0.00 | 0.05 | 0.00 | 71 | 1012.1 |
| 20260510104218 | 57 | 355 | 1.0 | 3.0 | 0.00 | 0.05 | 0.00 | 71 | 1012.0 |
| 20260510103503 | 57 | 357 | 1.0 | 4.0 | 0.00 | 0.05 | 0.00 | 72 | 1011.8 |
| 20260510103003 | 57 | 358 | 1.0 | 3.0 | 0.00 | 0.05 | 0.00 | 72 | 1011.8 |
| 20260510102503 | 57 | 357 | 1.0 | 3.0 | 0.00 | 0.05 | 0.00 | 72 | 1011.8 |
| 20260510102003 | 58 | 356 | 0.0 | 3.0 | 0.00 | 0.05 | 0.00 | 72 | 1011.8 |
| 20260510101503 | 58 | 349 | 0.0 | 1.0 | 0.00 | 0.05 | 0.00 | 72 | 1011.6 |
| 20260510101217 | 58 | 349 | 0.0 | 1.0 | 0.00 | 0.05 | 0.00 | 72 | 1011.6 |
| 20260510100503 | 58 | 356 | 1.0 | 2.0 | 0.00 | 0.05 | 0.00 | 73 | 1011.4 |
| 20260510100003 | 58 | 3 | 1.0 | 3.0 | 0.00 | 0.05 | 0.00 | 73 | 1011.3 |
| 20260510095719 | 58 | 4 | 1.0 | 3.0 | 0.00 | 0.05 | 0.00 | 73 | 1011.2 |
| 20260510095003 | 59 | 359 | 2.0 | 4.0 | 0.00 | 0.05 | 0.00 | 74 | 1011.1 |
| 20260510094503 | 59 | 2 | 2.0 | 4.0 | 0.00 | 0.05 | 0.00 | 73 | 1011.1 |
| 20260510094003 | 59 | 1 | 1.0 | 4.0 | 0.00 | 0.05 | 0.00 | 74 | 1011.0 |
| 20260510093503 | 59 | 357 | 1.0 | 4.0 | 0.00 | 0.05 | 0.00 | 74 | 1010.9 |
| 20260510093217 | 59 | 357 | 1.0 | 4.0 | 0.00 | 0.05 | 0.00 | 74 | 1010.7 |
| 20260510092503 | 59 | 10 | 1.0 | 4.0 | 0.00 | 0.05 | 0.00 | 75 | 1010.5 |
| 20260510092003 | 59 | 8 | 0.0 | 3.0 | 0.00 | 0.05 | 0.00 | 76 | 1010.4 |
| 20260510091503 | 59 | 355 | 0.0 | 3.0 | 0.00 | 0.05 | 0.00 | 76 | 1010.5 |
| 20260510091003 | 59 | 353 | 0.0 | 3.0 | 0.00 | 0.05 | 0.00 | 76 | 1010.5 |
| 20260510090503 | 59 | 355 | 0.0 | 1.0 | 0.00 | 0.05 | 0.00 | 78 | 1010.5 |
| 20260510090003 | 59 | 355 | 0.0 | 1.0 | 0.00 | 0.05 | 0.00 | 79 | 1010.3 |
| 20260510085718 | 59 | 355 | 0.0 | 1.0 | 0.00 | 0.05 | 0.00 | 78 | 1010.2 |
| 20260510085003 | 60 | 0 | 0.0 | 0.0 | 0.00 | 0.05 | 0.00 | 77 | 1010.3 |
| 20260510084718 | 60 | 0 | 0.0 | 0.0 | 0.00 | 0.05 | 0.00 | 77 | 1010.4 |
| 20260510084003 | 61 | 0 | 0.0 | 0.0 | 0.00 | 0.05 | 0.00 | 78 | 1010.4 |
| 20260510083503 | 61 | 5 | 0.0 | 1.0 | 0.00 | 0.05 | 0.00 | 77 | 1010.4 |
| 20260510083003 | 61 | 59 | 0.0 | 2.0 | 0.00 | 0.05 | 0.00 | 76 | 1010.4 |
| 20260510082503 | 61 | 53 | 1.0 | 2.0 | 0.00 | 0.05 | 0.00 | 76 | 1010.3 |
| 20260510082217 | 61 | 55 | 1.0 | 2.0 | 0.00 | 0.05 | 0.00 | 76 | 1010.3 |
| 20260510081718 | 61 | 274 | 0.0 | 2.0 | 0.00 | 0.05 | 0.00 | 76 | 1010.5 |
| 20260510081003 | 62 | 0 | 0.0 | 0.0 | 0.00 | 0.05 | 0.00 | 76 | 1010.9 |
| 20260510080718 | 62 | 236 | 0.0 | 1.0 | 0.00 | 0.05 | 0.00 | 76 | 1011.1 |
| 20260510080003 | 62 | 235 | 0.0 | 2.0 | 0.00 | 0.05 | 0.00 | 74 | 1011.2 |
| 20260510075503 | 62 | 222 | 0.0 | 1.0 | 0.00 | 0.05 | 0.00 | 74 | 1011.2 |
| 20260510075003 | 62 | 222 | 0.0 | 1.0 | 0.00 | 0.05 | 0.00 | 73 | 1011.4 |
| 20260510074503 | 62 | 246 | 0.0 | 1.0 | 0.00 | 0.05 | 0.00 | 73 | 1011.4 |
| 20260510074003 | 62 | 246 | 0.0 | 1.0 | 0.00 | 0.05 | 0.00 | 73 | 1011.4 |
| 20260510073503 | 62 | 263 | 0.0 | 1.0 | 0.00 | 0.05 | 0.00 | 72 | 1011.2 |
| 20260510073003 | 62 | 263 | 0.0 | 1.0 | 0.00 | 0.05 | 0.00 | 74 | 1011.1 |
| 20260510072503 | 62 | 265 | 0.0 | 1.0 | 0.00 | 0.05 | 0.00 | 75 | 1010.8 |
| 20260510072218 | 62 | 265 | 0.0 | 1.0 | 0.00 | 0.05 | 0.00 | 74 | 1010.6 |
| 20260510071503 | 62 | 0 | 0.0 | 0.0 | 0.00 | 0.05 | 0.00 | 76 | 1010.4 |
| 20260510071003 | 62 | 0 | 0.0 | 0.0 | 0.00 | 0.05 | 0.00 | 78 | 1010.3 |
| 20260510070503 | 62 | 0 | 0.0 | 0.0 | 0.00 | 0.05 | 0.00 | 79 | 1010.2 |
| 20260510070004 | 62 | 0 | 0.0 | 0.0 | 0.00 | 0.05 | 0.00 | 80 | 1010.2 |
| 20260510065503 | 62 | 0 | 0.0 | 0.0 | 0.00 | 0.05 | 0.00 | 81 | 1010.2 |
| 20260510065003 | 61 | 0 | 0.0 | 0.0 | 0.00 | 0.05 | 0.00 | 83 | 1010.1 |
| 20260510064717 | 61 | 0 | 0.0 | 0.0 | 0.00 | 0.05 | 0.00 | 84 | 1010.2 |
| 20260510064003 | 61 | 0 | 0.0 | 0.0 | 0.00 | 0.05 | 0.00 | 86 | 1010.0 |
| 20260510063503 | 61 | 0 | 0.0 | 0.0 | 0.00 | 0.05 | 0.00 | 86 | 1009.8 |
| 20260510063003 | 62 | 0 | 0.0 | 0.0 | 0.00 | 0.05 | 0.00 | 86 | 1009.7 |
| 20260510062503 | 62 | 0 | 0.0 | 0.0 | 0.00 | 0.05 | 0.00 | 85 | 1009.6 |
| 20260510062003 | 62 | 0 | 0.0 | 0.0 | 0.00 | 0.05 | 0.00 | 85 | 1009.5 |
| 20260510061504 | 62 | 0 | 0.0 | 0.0 | 0.00 | 0.05 | 0.00 | 85 | 1009.5 |
| 20260510061218 | 62 | 0 | 0.0 | 0.0 | 0.00 | 0.05 | 0.00 | 85 | 1009.5 |
| 20260510060503 | 62 | 0 | 0.0 | 0.0 | 0.00 | 0.05 | 0.00 | 85 | 1009.5 |
| 20260510060004 | 62 | 0 | 0.0 | 0.0 | 0.00 | 0.05 | 0.00 | 84 | 1009.5 |
| 20260510055504 | 62 | 0 | 0.0 | 0.0 | 0.00 | 0.05 | 0.00 | 84 | 1009.5 |
| 20260510055003 | 63 | 0 | 0.0 | 0.0 | 0.00 | 0.05 | 0.00 | 84 | 1009.4 |
| 20260510054503 | 63 | 0 | 0.0 | 0.0 | 0.00 | 0.05 | 0.00 | 83 | 1009.4 |
| 20260510054003 | 63 | 0 | 0.0 | 0.0 | 0.00 | 0.05 | 0.00 | 83 | 1009.3 |
| 20260510053503 | 63 | 0 | 0.0 | 0.0 | 0.00 | 0.05 | 0.00 | 83 | 1009.3 |
| 20260510053003 | 63 | 0 | 0.0 | 0.0 | 0.00 | 0.05 | 0.00 | 83 | 1009.2 |
| 20260510052503 | 63 | 0 | 0.0 | 0.0 | 0.00 | 0.05 | 0.00 | 83 | 1009.3 |
| 20260510052218 | 63 | 0 | 0.0 | 0.0 | 0.00 | 0.05 | 0.00 | 83 | 1009.3 |
| 20260510051503 | 63 | 0 | 0.0 | 0.0 | 0.00 | 0.05 | 0.00 | 83 | 1009.2 |
| 20260510051218 | 63 | 0 | 0.0 | 0.0 | 0.00 | 0.05 | 0.00 | 83 | 1009.2 |
| 20260510050503 | 63 | 0 | 0.0 | 0.0 | 0.00 | 0.05 | 0.00 | 83 | 1009.2 |
| 20260510050218 | 63 | 0 | 0.0 | 0.0 | 0.00 | 0.05 | 0.00 | 83 | 1009.1 |
| 20260510045719 | 63 | 219 | 0.0 | 1.0 | 0.00 | 0.05 | 0.00 | 83 | 1009.2 |
| 20260510045003 | 63 | 341 | 0.0 | 1.0 | 0.00 | 0.05 | 0.00 | 83 | 1009.0 |
| 20260510044503 | 63 | 359 | 0.0 | 1.0 | 0.00 | 0.05 | 0.00 | 83 | 1009.1 |
| 20260510044004 | 63 | 278 | 0.0 | 1.0 | 0.00 | 0.05 | 0.00 | 83 | 1009.1 |
| 20260510043503 | 63 | 0 | 0.0 | 0.0 | 0.00 | 0.05 | 0.00 | 83 | 1008.9 |
| 20260510043003 | 63 | 0 | 0.0 | 0.0 | 0.00 | 0.05 | 0.00 | 83 | 1008.9 |
| 20260510042503 | 63 | 0 | 0.0 | 0.0 | 0.00 | 0.05 | 0.00 | 82 | 1008.8 |
| 20260510042003 | 63 | 0 | 0.0 | 0.0 | 0.00 | 0.05 | 0.00 | 83 | 1008.8 |
| 20260510041718 | 63 | 0 | 0.0 | 0.0 | 0.00 | 0.05 | 0.00 | 82 | 1008.8 |
| 20260510041217 | 63 | 0 | 0.0 | 0.0 | 0.00 | 0.05 | 0.00 | 83 | 1008.9 |
| 20260510040503 | 63 | 0 | 0.0 | 0.0 | 0.00 | 0.05 | 0.00 | 82 | 1008.9 |
| 20260510040006 | 63 | 0 | 0.0 | 0.0 | 0.00 | 0.05 | 0.00 | 82 | 1008.9 |
| 20260510035503 | 63 | 0 | 0.0 | 0.0 | 0.00 | 0.05 | 0.00 | 82 | 1009.0 |
| 20260510035003 | 64 | 0 | 0.0 | 0.0 | 0.00 | 0.05 | 0.00 | 81 | 1008.9 |
| 20260510034503 | 64 | 0 | 0.0 | 0.0 | 0.00 | 0.05 | 0.00 | 81 | 1008.8 |
| 20260510034003 | 64 | 0 | 0.0 | 0.0 | 0.00 | 0.05 | 0.00 | 80 | 1008.9 |
| 20260510033503 | 64 | 0 | 0.0 | 0.0 | 0.00 | 0.05 | 0.00 | 80 | 1008.9 |
| 20260510033003 | 64 | 0 | 0.0 | 0.0 | 0.00 | 0.05 | 0.00 | 80 | 1008.8 |
| 20260510032503 | 64 | 0 | 0.0 | 0.0 | 0.00 | 0.05 | 0.00 | 80 | 1008.7 |
| 20260510032003 | 64 | 0 | 0.0 | 0.0 | 0.00 | 0.05 | 0.00 | 80 | 1008.7 |
| 20260510031503 | 64 | 0 | 0.0 | 0.0 | 0.00 | 0.05 | 0.00 | 80 | 1008.8 |
| 20260510031003 | 64 | 0 | 0.0 | 0.0 | 0.00 | 0.05 | 0.00 | 80 | 1008.9 |
| 20260510030503 | 65 | 0 | 0.0 | 0.0 | 0.00 | 0.05 | 0.00 | 80 | 1009.0 |
| 20260510030004 | 65 | 0 | 0.0 | 0.0 | 0.00 | 0.05 | 0.00 | 80 | 1008.9 |
| 20260510025718 | 65 | 0 | 0.0 | 0.0 | 0.00 | 0.05 | 0.00 | 80 | 1008.9 |
| 20260510025003 | 65 | 0 | 0.0 | 0.0 | 0.00 | 0.05 | 0.00 | 80 | 1008.7 |
| 20260510024503 | 65 | 0 | 0.0 | 0.0 | 0.00 | 0.05 | 0.00 | 79 | 1008.8 |
| 20260510024003 | 65 | 0 | 0.0 | 0.0 | 0.00 | 0.05 | 0.00 | 79 | 1008.7 |
| 20260510023718 | 66 | 0 | 0.0 | 0.0 | 0.00 | 0.05 | 0.00 | 79 | 1008.6 |
| 20260510023003 | 66 | 0 | 0.0 | 0.0 | 0.00 | 0.05 | 0.00 | 79 | 1008.5 |
| 20260510022503 | 66 | 0 | 0.0 | 0.0 | 0.00 | 0.05 | 0.00 | 78 | 1008.5 |
| 20260510022003 | 66 | 0 | 0.0 | 0.0 | 0.00 | 0.05 | 0.00 | 78 | 1008.5 |
| 20260510021503 | 66 | 0 | 0.0 | 0.0 | 0.00 | 0.05 | 0.00 | 78 | 1008.3 |
| 20260510021003 | 66 | 0 | 0.0 | 0.0 | 0.00 | 0.05 | 0.00 | 78 | 1008.2 |
| 20260510020503 | 67 | 0 | 0.0 | 0.0 | 0.00 | 0.05 | 0.00 | 78 | 1008.2 |
| 20260510020218 | 67 | 0 | 0.0 | 0.0 | 0.00 | 0.05 | 0.00 | 78 | 1008.1 |
| 20260510015503 | 67 | 0 | 0.0 | 0.0 | 0.00 | 0.05 | 0.00 | 77 | 1008.0 |
| 20260510015003 | 67 | 0 | 0.0 | 0.0 | 0.00 | 0.05 | 0.00 | 77 | 1008.0 |
| 20260510014503 | 67 | 0 | 0.0 | 0.0 | 0.00 | 0.05 | 0.00 | 76 | 1008.0 |
| 20260510014003 | 68 | 0 | 0.0 | 0.0 | 0.00 | 0.05 | 0.00 | 76 | 1007.8 |
| 20260510013503 | 68 | 0 | 0.0 | 0.0 | 0.00 | 0.05 | 0.00 | 76 | 1007.8 |
| 20260510013003 | 68 | 0 | 0.0 | 0.0 | 0.00 | 0.05 | 0.00 | 76 | 1007.6 |
| 20260510012504 | 68 | 0 | 0.0 | 0.0 | 0.00 | 0.05 | 0.00 | 75 | 1007.6 |
| 20260510012003 | 69 | 0 | 0.0 | 0.0 | 0.00 | 0.05 | 0.00 | 75 | 1007.5 |
| 20260510011503 | 69 | 0 | 0.0 | 0.0 | 0.00 | 0.05 | 0.00 | 75 | 1007.5 |
| 20260510011003 | 70 | 0 | 0.0 | 0.0 | 0.00 | 0.05 | 0.00 | 74 | 1007.3 |
| 20260510010503 | 70 | 0 | 0.0 | 0.0 | 0.00 | 0.05 | 0.00 | 73 | 1007.3 |
| 20260510010003 | 70 | 0 | 0.0 | 0.0 | 0.00 | 0.05 | 0.00 | 72 | 1007.3 |
| 20260510005503 | 71 | 0 | 0.0 | 0.0 | 0.00 | 0.05 | 0.00 | 71 | 1007.3 |
| 20260510005003 | 71 | 0 | 0.0 | 0.0 | 0.00 | 0.05 | 0.00 | 70 | 1007.4 |
| 20260510004503 | 72 | 0 | 0.0 | 0.0 | 0.00 | 0.05 | 0.00 | 70 | 1007.3 |
| 20260510004003 | 72 | 0 | 0.0 | 0.0 | 0.00 | 0.05 | 0.00 | 69 | 1007.2 |
| 20260510003503 | 72 | 242 | 0.0 | 1.0 | 0.00 | 0.05 | 0.00 | 68 | 1007.2 |
| 20260510003004 | 72 | 241 | 0.0 | 1.0 | 0.00 | 0.05 | 0.00 | 67 | 1007.2 |
| 20260510002503 | 73 | 239 | 0.0 | 1.0 | 0.00 | 0.05 | 0.00 | 66 | 1007.2 |
| 20260510002003 | 73 | 234 | 0.0 | 1.0 | 0.00 | 0.05 | 0.00 | 66 | 1007.1 |
| 20260510001503 | 73 | 234 | 0.0 | 1.0 | 0.00 | 0.05 | 0.00 | 65 | 1007.1 |
| 20260510001003 | 73 | 0 | 0.0 | 0.0 | 0.00 | 0.05 | 0.00 | 65 | 1007.0 |
| 20260510000503 | 74 | 0 | 0.0 | 0.0 | 0.00 | 0.05 | 0.00 | 63 | 1006.8 |
| 20260510000003 | 74 | 0 | 0.0 | 0.0 | 0.00 | 0.05 | 0.00 | 63 | 1006.8 |
| 20260509235717 | 74 | 0 | 0.0 | 0.0 | 0.00 | 0.05 | 0.00 | 62 | 1006.8 |
| 20260509235003 | 74 | 239 | 0.0 | 2.0 | 0.00 | 0.05 | 0.00 | 62 | 1006.9 |
| 20260509234503 | 74 | 239 | 0.0 | 2.0 | 0.00 | 0.05 | 0.00 | 62 | 1006.8 |
| 20260509234003 | 74 | 0 | 0.0 | 0.0 | 0.00 | 0.05 | 0.00 | 61 | 1006.7 |
| 20260509233717 | 74 | 0 | 0.0 | 0.0 | 0.00 | 0.05 | 0.00 | 62 | 1006.7 |
| 20260509233003 | 75 | 0 | 0.0 | 0.0 | 0.00 | 0.05 | 0.00 | 60 | 1006.8 |
| 20260509232503 | 75 | 283 | 0.0 | 1.0 | 0.00 | 0.05 | 0.00 | 60 | 1006.7 |
| 20260509232003 | 75 | 271 | 0.0 | 1.0 | 0.00 | 0.05 | 0.00 | 60 | 1006.5 |
| 20260509231503 | 75 | 270 | 0.0 | 1.0 | 0.00 | 0.05 | 0.00 | 59 | 1006.5 |
| 20260509231003 | 75 | 280 | 0.0 | 1.0 | 0.00 | 0.05 | 0.00 | 60 | 1006.6 |
| 20260509230503 | 75 | 241 | 0.0 | 2.0 | 0.00 | 0.05 | 0.00 | 59 | 1006.7 |
| 20260509230217 | 75 | 241 | 0.0 | 2.0 | 0.00 | 0.05 | 0.00 | 59 | 1006.8 |
| 20260509225719 | 75 | 247 | 1.0 | 5.0 | 0.00 | 0.05 | 0.00 | 60 | 1006.7 |
| 20260509225003 | 75 | 248 | 1.0 | 5.0 | 0.00 | 0.05 | 0.00 | 58 | 1006.7 |
| 20260509224503 | 75 | 236 | 1.0 | 5.0 | 0.00 | 0.05 | 0.00 | 59 | 1006.7 |
| 20260509224004 | 75 | 230 | 1.0 | 5.0 | 0.00 | 0.05 | 0.00 | 59 | 1006.7 |
| 20260509223718 | 75 | 225 | 0.0 | 4.0 | 0.00 | 0.05 | 0.00 | 59 | 1006.6 |